Location: Slemon Park
(46.4340°N, 63.8219°W)
Time: 16:41:40
(UTC-03:00)

ISS - All Passes

Search period start: 30 June 2015 00:00
Search period end: 10 July 2015 00:00
Orbit: 398 x 403 km, 51.6° (Epoch: 30 June)

Date Brightness Start Highest point End Pass type
(mag) Time Alt. Az. Time Alt. Az. Time Alt. Az.
30 Jun - 10:48:40 10° SW 10:51:45 42° SE 10:54:52 10° ENE daylight
30 Jun - 12:25:02 10° W 12:28:10 44° NNW 12:31:19 10° ENE daylight
30 Jun - 14:02:05 10° WNW 14:05:02 31° N 14:08:00 10° ENE daylight
30 Jun - 15:38:33 10° WNW 15:41:48 67° NNE 15:45:01 10° ESE daylight
30 Jun - 17:15:20 10° W 17:17:58 22° SW 17:20:33 10° SSE daylight
01 Jul - 09:55:44 10° SSW 09:58:25 24° SE 10:01:09 10° E daylight
01 Jul - 11:31:24 10° WSW 11:34:37 62° NNW 11:37:52 10° ENE daylight
01 Jul - 13:08:27 10° WNW 13:11:24 31° N 13:14:22 10° ENE daylight
01 Jul - 14:45:07 10° WNW 14:48:16 46° NNE 14:51:24 10° E daylight
01 Jul - 16:21:35 10° WNW 16:24:38 39° SW 16:27:41 10° SE daylight
02 Jul - 09:03:24 10° SSE 09:05:08 14° SE 09:06:58 10° E daylight
02 Jul - 10:37:53 10° WSW 10:41:08 83° SSE 10:44:24 10° ENE daylight
02 Jul - 12:14:45 10° WNW 12:17:46 34° N 12:20:47 10° ENE daylight
02 Jul - 13:51:37 10° WNW 13:54:39 36° N 13:57:43 10° E daylight
02 Jul - 15:28:00 10° WNW 15:31:14 69° SSW 15:34:27 10° SE daylight
02 Jul - 17:06:05 10° WSW 17:07:09 11° SW 17:08:07 10° SSW daylight
03 Jul - 09:44:33 10° SW 09:47:41 48° SSE 09:50:51 10° ENE daylight
03 Jul - 11:21:02 10° W 11:24:09 41° NNW 11:27:16 10° ENE daylight
03 Jul - 12:58:03 10° WNW 13:01:01 32° N 13:03:59 10° ENE daylight
03 Jul - 14:34:30 10° WNW 14:37:45 73° NNE 14:40:59 10° ESE daylight
03 Jul - 16:11:24 10° W 16:13:52 20° SW 16:16:17 10° S daylight
04 Jul - 08:51:30 10° SSW 08:54:18 27° SE 08:57:08 10° E daylight
04 Jul - 10:27:20 10° WSW 10:30:34 57° NNW 10:33:46 10° ENE daylight
04 Jul - 12:04:24 10° WNW 12:07:21 31° N 12:10:18 10° ENE daylight
04 Jul - 13:41:00 10° WNW 13:44:11 49° NNE 13:47:21 10° E daylight
04 Jul - 15:17:31 10° WNW 15:20:32 34° SW 15:23:30 10° SSE daylight
05 Jul - 07:58:57 10° S 08:00:58 16° SE 08:03:04 10° E daylight
05 Jul - 09:33:45 10° WSW 09:37:00 88° NW 09:40:16 10° ENE daylight
05 Jul - 11:10:41 10° WNW 11:13:40 33° N 11:16:40 10° ENE daylight
05 Jul - 12:47:29 10° WNW 12:50:34 38° NNE 12:53:38 10° E daylight
05 Jul - 14:23:53 10° WNW 14:27:05 61° SSW 14:30:17 10° SE daylight
06 Jul - 08:40:20 10° SW 08:43:30 54° SSE 08:46:42 10° ENE daylight
06 Jul - 10:16:55 10° W 10:20:01 39° NNW 10:23:05 10° ENE daylight
06 Jul - 11:53:54 10° WNW 11:56:53 32° N 11:59:52 10° ENE daylight
06 Jul - 13:30:19 10° WNW 13:33:35 81° NNE 13:36:49 10° ESE daylight
06 Jul - 15:07:22 10° W 15:09:39 18° SW 15:11:53 10° S daylight
07 Jul - 07:47:10 10° SSW 07:50:03 31° SE 07:53:00 10° ENE daylight
07 Jul - 09:23:09 10° W 09:26:22 53° NNW 09:29:34 10° ENE daylight
07 Jul - 11:00:14 10° WNW 11:03:10 31° N 11:06:08 10° ENE daylight
07 Jul - 12:36:47 10° WNW 12:40:00 53° NNE 12:43:11 10° E daylight
07 Jul - 14:13:22 10° WNW 14:16:17 30° SW 14:19:10 10° SSE daylight
08 Jul - 06:54:25 10° S 06:56:41 18° SE 06:59:00 10° E daylight
08 Jul - 08:29:30 10° WSW 08:32:45 80° NNW 08:36:01 10° ENE daylight
08 Jul - 10:06:28 10° WNW 10:09:27 32° N 10:12:27 10° ENE daylight
08 Jul - 11:43:14 10° WNW 11:46:20 39° NNE 11:49:25 10° E daylight
08 Jul - 13:19:38 10° WNW 13:22:49 54° SSW 13:25:59 10° SE daylight
09 Jul - 07:36:00 10° SW 07:39:12 62° SSE 07:42:26 10° ENE daylight
09 Jul - 09:12:40 10° W 09:15:44 37° NNW 09:18:49 10° ENE daylight
09 Jul - 10:49:37 10° WNW 10:52:38 33° N 10:55:38 10° ENE daylight
09 Jul - 12:26:02 10° WNW 12:29:17 89° N 12:32:32 10° ESE daylight
09 Jul - 14:03:14 10° W 14:05:19 16° SW 14:07:19 10° S daylight
